[Iaude] MPEC K203: 2020 KV5 [a=1.82,e=0.50,i=8.1,H=24.2]

mpec at marsden.cfa.harvard.edu mpec at marsden.cfa.harvard.edu
Wed May 27 18:25:48 EDT 2020


M.P.E.C. 2020-K203                                 Issued 2020 May 27, 22:24 UT

     The Minor Planet Electronic Circulars contain information on unusual
         minor planets and routine data on comets.  They are published
    on behalf of Division F of the International Astronomical Union by the
          Minor Planet Center, Smithsonian Astrophysical Observatory,
                          Cambridge, MA 02138, U.S.A.

             Prepared using the Tamkin Foundation Computer Network

                              MPC at CFA.HARVARD.EDU
            URL https://www.minorplanetcenter.net/    ISSN 1523-6714

                                    2020 KV5                                    


Observations:
     K20K05V* C2020 05 26.51115318 57 09.70 +13 58 44.5          18.05cVEK203T05
     K20K05V  C2020 05 26.51443418 57 06.10 +13 58 10.3          18.21cVEK203T05
     K20K05V  C2020 05 26.51999318 57 00.10 +13 57 13.1          17.55cVEK203T05
     K20K05V NC2020 05 26.88488618 52 01.44 +12 56 06.3          18.6 GVEK203L01
     K20K05V NC2020 05 26.88532118 52 01.13 +12 56 03.5          18.5 GVEK203L01
     K20K05V NC2020 05 26.88708618 51 59.65 +12 55 48.1          18.6 GVEK203L01
     K20K05V NC2020 05 26.88753418 51 59.30 +12 55 44.1          18.3 GVEK203L01
     K20K05V NC2020 05 26.88796918 51 58.95 +12 55 40.6          18.3 GVEK203L01
     K20K05V NC2020 05 26.88841618 51 58.57 +12 55 36.7          18.4 GVEK203L01
     K20K05V  C2020 05 26.92552 18 51 27.80 +12 50 02.8          18.1 GVEK203A17
     K20K05V KC2020 05 26.92690418 51 29.60 +12 50 21.4          17.8 GVEK203B49
     K20K05V  C2020 05 26.92852 18 51 25.38 +12 49 38.1          17.1 GVEK203A17
     K20K05V  C2020 05 26.93224 18 51 22.37 +12 49 06.2          17.1 GVEK203A17
     K20K05V KC2020 05 26.93231518 51 25.21 +12 49 36.1          17.4 GVEK203B49
     K20K05V  C2020 05 26.93460 18 51 20.45 +12 48 46.8          17.9 GVEK203A17
     K20K05V  C2020 05 26.93676 18 51 18.69 +12 48 28.9          18.1 GVEK203A17
     K20K05V KC2020 05 26.93781818 51 20.72 +12 48 50.7          17.7 GVEK203B49
     K20K05V  C2020 05 26.93951 18 51 16.46 +12 48 05.7          17.6 GVEK203A17
     K20K05V KC2020 05 26.97641218 50 47.58 +12 42 47.0          17.5 GVEK203Z80
     K20K05V KC2020 05 26.97988418 50 44.81 +12 42 18.4          18.0 GVEK203Z80
     K20K05V KC2020 05 26.98336518 50 42.00 +12 41 49.7          18.0 GVEK203Z80
     K20K05V KC2020 05 26.98730318 50 38.89 +12 41 17.2          18.2 GVEK203Z80
     K20K05V KC2020 05 26.99871 18 50 31.24 +12 40 19.5          18.1 GVEK203958
     K20K05V KC2020 05 27.00262 18 50 28.03 +12 39 47.5          17.8 GVEK203958
     K20K05V KC2020 05 27.00977 18 50 19.57 +12 38 43.6                VEK203204
     K20K05V KC2020 05 27.01051 18 50 21.63 +12 38 43.5          17.7 GVEK203958
     K20K05V KC2020 05 27.01136 18 50 18.27 +12 38 30.6          17.9 GVEK203204
     K20K05V KC2020 05 27.01453 18 50 18.34 +12 38 11.1          17.8 GVEK203958
     K20K05V KC2020 05 27.01468 18 50 15.58 +12 38 03.4                VEK203204
     K20K05V KC2020 05 27.01599 18 50 14.49 +12 37 52.8                VEK203204
     K20K05V KC2020 05 27.01931 18 50 11.79 +12 37 25.6                VEK203204
     K20K05V KC2020 05 27.02249218 50 10.82 +12 36 30.8          18.3 GVEK203J95
     K20K05V KC2020 05 27.02831218 50 06.16 +12 35 44.4          18.0 GVEK203J95
     K20K05V KC2020 05 27.03533418 50 00.54 +12 34 47.1          17.8 GVEK203J95
     K20K05V KC2020 05 27.04073518 49 56.23 +12 34 03.0          17.9 GVEK203J95
     K20K05V KC2020 05 27.06178 18 49 39.66 +12 31 45.8                qEK203I93
     K20K05V KC2020 05 27.06999 18 49 33.04 +12 30 39.7                qEK203I93
     K20K05V KC2020 05 27.07316 18 49 30.48 +12 30 14.3          18.0 VqEK203I93
     K20K05V KC2020 05 27.08937018 49 14.99 +12 27 58.4          18.0 GVEK203K38
     K20K05V KC2020 05 27.09982318 49 06.66 +12 26 34.7          18.0 GVEK203K38
     K20K05V KC2020 05 27.10487718 49 02.67 +12 25 54.1          18.0 GVEK203K38
     K20K05V  C2020 05 27.31178 18 46 57.49 +12 00 27.4          17.9 GVEK203I52
     K20K05V  C2020 05 27.31335 18 46 56.37 +12 00 15.0          17.2 GVEK203I52
     K20K05V  C2020 05 27.31415 18 46 55.77 +12 00 10.7          18.1 GVEK203I52
     K20K05V  C2020 05 27.44704 18 45 21.84 +11 44 23.7          18.9 GVEK203654
     K20K05V  C2020 05 27.45105 18 45 19.02 +11 43 55.7          18.9 GVEK203654
     K20K05V KC2020 05 27.88363 18 41 35.93 +10 56 51.0          18.3 GVEK203595
     K20K05V KC2020 05 27.89454 18 41 30.65 +10 55 55.1          18.7 GVEK203K83
     K20K05V IC2020 05 27.89482 18 41 29.90 +10 55 48.6          18.1 GVEK203595
     K20K05V KC2020 05 27.89713 18 41 29.25 +10 55 41.5          17.9 GVEK203K83
     K20K05V IC2020 05 27.89748 18 41 28.46 +10 55 33.3          17.9 GVEK203595
     K20K05V KC2020 05 27.89973 18 41 27.88 +10 55 26.0          18.2 GVEK203K83
     K20K05V KC2020 05 27.90232 18 41 26.41 +10 55 11.2          19.0 GVEK203K83

Observer details:
204 Schiaparelli Observatory.  Observer L. Buzzi.  0.84-m f/3.5 reflector +
    CCD.
595 Farra d'Isonzo.  Observer E. Pettarin.  0.40-m f/5.15 reflector + CCD.
654 Table Mountain Observatory, Wrightwood-PHMC.  Observers P. Choi, N. Saini,
    C. Zhai, R. Trahan, M. Shao.
958 Observatoire de Dax.  Observer P. Dupouy.  0.51-m f/6 reflector + CCD.
A17 Guidestar Observatory, Weinheim.  Observers M. Emmerich, S. Melchert.
    0.36-m f/6 Schmidt-Cassegrain + CCD.
B49 Paus Observatory, Sabadell.  Observer J. Camarasa.  0.30-m f/4 reflector +
    CCD.
I52 Steward Observatory, Mt. Lemmon Station.  Observer R. A. Kowalski.
    Measurers E. J. Christensen, G. A. Farneth, D. C. Fuls, A. R. Gibbs, A. D.
    Grauer, H. Groeller, R. A. Kowalski, S. M. Larson, G. J. Leonard, T. A.
    Pruyne, D. Rankin, R. L. Seaman, F. C. Shelly, K. W. Wierzchos.  1.0-m
    reflector + CCD.
I93 St Pardon de Conques.  Observer F. Losse.  0.40-m f/3.7 reflector + CCD.
J95 Great Shefford.  Observer P. Birtwhistle.  0.41-m f/6.3 Schmidt-Cassegrain
    + CCD.
K38 M57 Observatory, Saltrio.  Observer G. Baj.  0.3-m f/5.5 Ritchey-Chretien
    + CCD.
K83 Beppe Forti Astronomical Observatory, Montelupo.  Observers M. Tombelli,
    A. Mazzanti, G. Interrante.  Measurers M. Tombelli, Y. Mazzanti, T.
    Bitossi.
L01 Visnjan Observatory, Tican.  Observer K. Korlevic.  1.0-m f/2.9 reflector
    + CCD.
T05 ATLAS-HKO, Haleakala.  Observers L. Denneau, J. Tonry, A. Heinze, H.
    Weiland, H. Flewelling.  Measurers L. Denneau, J. Tonry, A. Heinze, H.
    Weiland, H. Flewelling, B. Stalder, A. Fitzsimmons, J. Robinson, N.
    Erasmus.  0.5-m reflector + CCD.
Z80 Northolt Branch Observatory.  Observer G. Wells.  Measurers G. Wells, D.
    Bamberger.  0.25-m f/8.0 Ritchey-Chretien + CCD.

Orbital elements:
2020 KV5                                                 Earth MOID = 0.0059 AU
Epoch 2020 May 31.0 TT = JDT 2459000.5                  Veres
M  17.47478              (2000.0)            P               Q
n   0.40176055     Peri.  315.45522     -0.95507102     +0.26953711
a   1.8189657      Node   240.55353     -0.21672176     -0.91878853
e   0.5030575      Incl.    8.13623     -0.20216584     -0.28840491
P   2.45           H   24.2           G   0.15           U   7
Residuals in seconds of arc
200526 T05  0.3+  0.3+    200526 Z80  0.4-  0.1-    200527 I93  0.1+  0.0
200526 T05  0.4-  0.1+    200526 Z80  0.1-  0.2-    200527 I93  0.0   0.0
200526 T05  0.2-  0.5+    200526 Z80  0.3-  0.4-    200527 K38  0.1-  0.0
200526 L01  0.4-  0.1-    200526 Z80  0.6+  0.6-    200527 K38  0.1-  0.3+
200526 L01  0.3+  0.7+    200526 958  0.0   0.2+    200527 K38  0.2+  0.2+
200526 L01  0.2-  0.3+    200527 958  0.4-  0.0     200527 I52  0.2+  0.1+
200526 L01  0.0   0.0     200527 204  0.5-  0.0     200527 I52  0.6+  1.2-
200526 L01  0.1+  0.2+    200527 958  0.0   0.1+    200527 I52  0.3+  0.2+
200526 L01  0.1-  0.1+    200527 204  0.4-  0.1-    200527 654  0.1+  0.4+
200526 A17  0.7-  0.1+    200527 958  0.2-  0.3+    200527 654  0.1+  0.3+
200526 B49  0.1+  0.1+    200527 204  0.0   0.2-    200527 595  0.2+  0.2+
200526 A17  0.3-  0.5+    200527 204  0.2-  0.1-    200527 K83  0.8-  0.5-
200526 A17  0.1-  0.4-    200527 204  0.0   0.2-    200527 595  0.7+  1.0+
200526 B49  0.2+  0.3-    200527 J95  0.0   0.3-    200527 K83  0.8-  0.5+
200526 A17  0.0   0.1-    200527 J95  0.1+  0.5+    200527 595  0.8+  0.6+
200526 A17  0.0   0.1-    200527 J95  0.1+  0.0     200527 K83  0.2-  0.4-
200526 B49  0.1+  0.2-    200527 J95  0.3+  0.5-    200527 K83  1.1-  0.7-
200526 A17  0.1+  0.4-    200527 I93  0.1-  0.2+

Ephemeris:
2020 KV5                 a,e,i = 1.82, 0.50, 8                   q = 0.9039
Date    TT    R. A. (2000) Decl.     Delta      r    Elong.  Phase     V
2020 04 27    05 43 11.7 +00 01 09   0.1705  0.9129    52.5   118.9    24.9
...
2020 05 12    05 41 41.7 +01 07 08   0.07137 0.9563    39.6   137.7    24.9
...
2020 05 20    04 55 44.1 +10 29 29   0.02047 0.9926    18.9   160.7    27.0
...
2020 05 26    19 06 18.7 +15 41 27   0.02085 1.0248   123.6    55.4    17.9
2020 05 27    18 50 20.7 +12 43 14   0.02696 1.0305   129.1    49.7    18.3
2020 05 28    18 40 27.8 +10 48 39   0.03320 1.0363   132.8    45.9    18.6
...
2020 06 03    18 17 45.0 +06 11 23   0.07156 1.0727   143.5    34.2    20.0
...
2020 06 11    18 08 14.9 +03 58 10   0.1244  1.1250   150.3    26.6    21.1
...
2020 06 26    18 00 34.0 +01 04 11   0.2318  1.2307   155.1    20.3    22.5

M. P. C. Staff               (C) Copyright 2020 MPC           M.P.E.C. 2020-K203




More information about the Iaude mailing list